ETD121 OMAA-EDDF

Flight info

Callsign ETD121
Flight time N/A
Altitude 36000
Route MEKRI P899 TOVOX DCT ULIKA M430 KSA T503 TAMRO/N0489F380 T503 OVANO L768 FIRAS R655 LEBOR UR655 BALMA DCT VESAR UB545 OKLAM UL619 OSVEL UQ23 OSDAN UQ26 TUDBU DCT NAVOD DCT INVED/N0484F400 DCT EBORO DCT ARSIN DCT SUBEN DCT AKINI T161 DEBHI DEBHI1B
Aircraft A35K/H-SDE2E3GHIJ3J4J5LM1ORWXY/LB1D1

Departure

Time 2026-05-07 14:56
Airport Zayed International Airport (OMAA)

Arrival

Time N/A
Airport Frankfurt Main Airport (EDDF)
Time Latitude Longitude Altitude Speed Heading
2026-05-07 14:37 24.45042 54.65003 82 ft 0 kts 259°
2026-05-07 14:44 24.45044 54.65016 82 ft 4 kts 267°
2026-05-07 14:44 24.45042 54.65044 84 ft 4 kts 290°
2026-05-07 14:45 24.45031 54.65071 85 ft 4 kts 292°
2026-05-07 14:45 24.45023 54.65098 84 ft 4 kts 273°
2026-05-07 14:45 24.45026 54.65126 86 ft 4 kts 242°
2026-05-07 14:45 24.45040 54.65146 86 ft 1 kts 217°
2026-05-07 14:46 24.45041 54.65145 86 ft 0 kts 217°
2026-05-07 14:48 24.45039 54.65142 86 ft 1 kts 226°
2026-05-07 14:48 24.45048 54.65125 87 ft 3 kts 323°
2026-05-07 14:49 24.45061 54.65134 87 ft 4 kts 51°
2026-05-07 14:49 24.45060 54.65149 87 ft 0 kts 103°
2026-05-07 14:50 24.45059 54.65150 87 ft 4 kts 103°
2026-05-07 14:50 24.45004 54.65254 87 ft 23 kts 127°
2026-05-07 14:50 24.44898 54.65404 88 ft 25 kts 129°
2026-05-07 14:50 24.44759 54.65419 86 ft 24 kts 216°
2026-05-07 14:51 24.44630 54.65313 87 ft 24 kts 218°
2026-05-07 14:51 24.44539 54.65235 87 ft 25 kts 218°
2026-05-07 14:51 24.44343 54.65068 88 ft 28 kts 218°
2026-05-07 14:51 24.44181 54.64932 87 ft 30 kts 217°
2026-05-07 14:52 24.44011 54.64789 86 ft 30 kts 218°
2026-05-07 14:52 24.43886 54.64768 85 ft 20 kts 136°
2026-05-07 14:52 24.43778 54.64919 86 ft 28 kts 128°
2026-05-07 14:52 24.43654 54.65093 87 ft 30 kts 128°
2026-05-07 14:53 24.43526 54.65274 86 ft 30 kts 128°
2026-05-07 14:53 24.43392 54.65464 85 ft 32 kts 128°
2026-05-07 14:53 24.43269 54.65636 87 ft 27 kts 128°
2026-05-07 14:53 24.43149 54.65805 86 ft 29 kts 128°
2026-05-07 14:54 24.43020 54.65986 86 ft 28 kts 128°
2026-05-07 14:54 24.42901 54.66155 87 ft 29 kts 128°
2026-05-07 14:54 24.42774 54.66334 87 ft 30 kts 128°
2026-05-07 14:54 24.42643 54.66519 86 ft 31 kts 128°
2026-05-07 14:55 24.42518 54.66694 87 ft 24 kts 128°
2026-05-07 14:55 24.42407 54.66751 84 ft 19 kts 201°
2026-05-07 14:55 24.42295 54.66661 86 ft 22 kts 217°
2026-05-07 14:55 24.42297 54.66542 86 ft 17 kts 306°
2026-05-07 14:56 24.42476 54.66287 89 ft 80 kts 308°
2026-05-07 14:56 24.42973 54.65588 88 ft 150 kts 308°
2026-05-07 14:56 24.43727 54.64523 289 ft 193 kts 307°
2026-05-07 14:56 24.44571 54.63353 1045 ft 195 kts 308°
2026-05-07 14:57 24.45420 54.62163 1853 ft 208 kts 306°
2026-05-07 14:57 24.46341 54.60856 2508 ft 222 kts 306°
2026-05-07 14:57 24.46976 54.59957 2891 ft 228 kts 306°
2026-05-07 14:57 24.47628 54.59037 3275 ft 234 kts 307°
2026-05-07 14:58 24.49041 54.57042 3810 ft 263 kts 307°
2026-05-07 14:58 24.50587 54.54856 4720 ft 275 kts 307°
2026-05-07 14:58 24.51739 54.53158 5470 ft 280 kts 302°
2026-05-07 14:58 24.52442 54.51164 6244 ft 284 kts 279°
2026-05-07 14:59 24.52525 54.50460 6464 ft 287 kts 275°
2026-05-07 14:59 24.52645 54.46765 7769 ft 292 kts 270°
2026-05-07 14:59 24.52688 54.44533 8663 ft 292 kts 270°
2026-05-07 14:59 24.52742 54.42305 9601 ft 293 kts 270°
2026-05-07 15:00 24.52798 54.40056 10367 ft 300 kts 270°
2026-05-07 15:00 24.52858 54.37685 10739 ft 322 kts 270°
2026-05-07 15:00 24.52927 54.35147 11048 ft 343 kts 270°
2026-05-07 15:00 24.53006 54.32459 11326 ft 362 kts 270°
2026-05-07 15:01 24.53083 54.29680 11748 ft 374 kts 270°
2026-05-07 15:01 24.53164 54.26807 12363 ft 379 kts 270°
2026-05-07 15:01 24.53245 54.23895 13028 ft 384 kts 270°
2026-05-07 15:01 24.53327 54.20950 13679 ft 388 kts 270°
2026-05-07 15:02 24.53191 54.12519 15348 ft 398 kts 265°
2026-05-07 15:02 24.53041 54.09471 15962 ft 402 kts 266°
2026-05-07 15:03 24.52901 54.06392 16566 ft 406 kts 266°
2026-05-07 15:03 24.52774 54.03284 17170 ft 410 kts 266°
2026-05-07 15:03 24.52646 54.00148 17759 ft 413 kts 266°
2026-05-07 15:03 24.52517 53.96976 18336 ft 417 kts 266°
2026-05-07 15:04 24.52417 53.93783 18886 ft 420 kts 269°
2026-05-07 15:04 24.52657 53.90577 19459 ft 424 kts 279°
2026-05-07 15:04 24.53258 53.87399 20045 ft 426 kts 282°
2026-05-07 15:04 24.54007 53.84240 20624 ft 430 kts 284°
2026-05-07 15:05 24.54832 53.81072 21223 ft 432 kts 285°
2026-05-07 15:05 24.55679 53.77898 21817 ft 435 kts 285°
2026-05-07 15:05 24.56526 53.74700 22402 ft 437 kts 285°
2026-05-07 15:05 24.57364 53.71482 23005 ft 439 kts 284°
2026-05-07 15:06 24.58193 53.68240 23527 ft 442 kts 284°
2026-05-07 15:06 24.59016 53.64977 24013 ft 444 kts 284°
2026-05-07 15:06 24.59837 53.61701 24551 ft 446 kts 284°
2026-05-07 15:06 24.60658 53.58406 25110 ft 447 kts 284°
2026-05-07 15:07 24.61479 53.55109 25707 ft 449 kts 284°
2026-05-07 15:07 24.62303 53.51795 26311 ft 450 kts 284°
2026-05-07 15:07 24.63130 53.48471 26919 ft 452 kts 283°
2026-05-07 15:07 24.63960 53.45134 27529 ft 454 kts 283°
2026-05-07 15:08 24.64794 53.41778 28095 ft 456 kts 283°
2026-05-07 15:08 24.65630 53.38409 28675 ft 458 kts 283°
2026-05-07 15:08 24.66470 53.35021 29241 ft 460 kts 283°
2026-05-07 15:08 24.67314 53.31615 29782 ft 463 kts 283°
2026-05-07 15:09 24.68160 53.28195 30220 ft 465 kts 283°
2026-05-07 15:09 24.69012 53.24754 30663 ft 467 kts 283°
2026-05-07 15:09 24.69865 53.21299 31066 ft 469 kts 283°
2026-05-07 15:09 24.70721 53.17829 31443 ft 472 kts 283°
2026-05-07 15:10 24.71583 53.14332 31798 ft 475 kts 283°
2026-05-07 15:10 24.72446 53.10823 32160 ft 476 kts 283°
2026-05-07 15:10 24.73310 53.07313 32666 ft 474 kts 283°
2026-05-07 15:10 24.74159 53.03864 33213 ft 472 kts 283°
2026-05-07 15:11 24.75013 53.00389 33742 ft 470 kts 283°
2026-05-07 15:11 24.75873 52.96880 34167 ft 468 kts 283°
2026-05-07 15:11 24.76708 52.93471 34558 ft 467 kts 283°
2026-05-07 15:11 24.77561 52.89983 34981 ft 466 kts 283°
2026-05-07 15:12 24.78403 52.86540 35383 ft 465 kts 283°
2026-05-07 15:12 24.79229 52.83151 35708 ft 465 kts 283°
2026-05-07 15:12 24.80900 52.76294 35804 ft 462 kts 282°
2026-05-07 15:13 24.82559 52.69475 35803 ft 461 kts 282°
2026-05-07 15:13 24.84211 52.62663 35804 ft 460 kts 282°
2026-05-07 15:14 24.85863 52.55856 35808 ft 461 kts 282°
2026-05-07 15:14 24.87509 52.49039 35806 ft 461 kts 282°
2026-05-07 15:15 24.89153 52.42212 35810 ft 461 kts 282°
2026-05-07 15:15 24.90740 52.35367 35810 ft 461 kts 281°
2026-05-07 15:16 24.92183 52.28499 35813 ft 459 kts 280°
2026-05-07 15:16 24.93611 52.21658 35810 ft 458 kts 280°
2026-05-07 15:17 24.95059 52.14821 35809 ft 458 kts 280°
2026-05-07 15:17 24.96514 52.07989 35817 ft 458 kts 280°
2026-05-07 15:18 24.97969 52.01154 35811 ft 458 kts 280°
2026-05-07 15:18 24.99422 51.94311 35810 ft 459 kts 280°
2026-05-07 15:19 25.00871 51.87464 35806 ft 459 kts 280°
2026-05-07 15:19 25.02316 51.80622 35804 ft 457 kts 280°
2026-05-07 15:20 25.03751 51.73811 35803 ft 456 kts 280°
2026-05-07 15:20 25.05183 51.66993 36243 ft 456 kts 280°
2026-05-07 15:21 25.05896 51.63595 36674 ft 454 kts 280°
2026-05-07 15:21 25.06604 51.60215 37082 ft 452 kts 280°
2026-05-07 15:21 25.07296 51.56912 37463 ft 450 kts 279°
2026-05-07 15:21 25.07999 51.53549 37763 ft 451 kts 279°
2026-05-07 15:22 25.09400 51.46827 37820 ft 449 kts 279°
2026-05-07 15:22 25.10797 51.40109 37822 ft 449 kts 279°
2026-05-07 15:23 25.12194 51.33382 37829 ft 449 kts 279°
2026-05-07 15:23 25.13573 51.26725 37823 ft 448 kts 279°
2026-05-07 15:24 25.14966 51.19984 37822 ft 448 kts 279°
2026-05-07 15:24 25.16336 51.13333 37819 ft 448 kts 279°
2026-05-07 15:25 25.17714 51.06632 37817 ft 448 kts 279°
2026-05-07 15:25 25.19088 50.99932 37815 ft 448 kts 279°
2026-05-07 15:26 25.20460 50.93230 37818 ft 448 kts 279°
2026-05-07 15:26 25.21829 50.86522 37818 ft 448 kts 279°
2026-05-07 15:27 25.23196 50.79810 37821 ft 448 kts 279°
2026-05-07 15:27 25.24560 50.73093 37820 ft 448 kts 279°
2026-05-07 15:28 25.25861 50.66360 37823 ft 447 kts 275°
2026-05-07 15:28 25.26192 50.59549 37826 ft 443 kts 268°
2026-05-07 15:29 25.26125 50.52741 37826 ft 443 kts 266°
2026-05-07 15:29 25.26092 50.45917 38135 ft 445 kts 268°
2026-05-07 15:30 25.26166 50.42509 38492 ft 443 kts 269°
2026-05-07 15:30 25.26260 50.39113 38769 ft 443 kts 269°
2026-05-07 15:30 25.26354 50.35709 38988 ft 443 kts 269°
2026-05-07 15:30 25.26441 50.32309 39206 ft 443 kts 269°
2026-05-07 15:31 25.26521 50.28910 39460 ft 442 kts 268°
2026-05-07 15:31 25.26594 50.25529 39748 ft 440 kts 268°
2026-05-07 15:31 25.26727 50.18763 39841 ft 440 kts 268°
2026-05-07 15:32 25.26854 50.12004 39838 ft 440 kts 268°
2026-05-07 15:32 25.26978 50.05242 39838 ft 440 kts 268°
2026-05-07 15:33 25.27101 49.98474 39837 ft 441 kts 268°
2026-05-07 15:33 25.27221 49.91707 39835 ft 441 kts 268°
2026-05-07 15:34 25.27338 49.84926 39836 ft 441 kts 268°
2026-05-07 15:34 25.27452 49.78144 39838 ft 441 kts 268°
2026-05-07 15:35 25.27545 49.72510 39843 ft 441 kts 268°
2026-05-07 15:35 25.27653 49.65727 39853 ft 442 kts 268°
2026-05-07 15:36 25.27759 49.58949 39848 ft 441 kts 268°
2026-05-07 15:36 25.27861 49.52179 39856 ft 440 kts 267°
2026-05-07 15:37 25.27633 49.45452 39856 ft 437 kts 262°
2026-05-07 15:37 25.27071 49.38769 39853 ft 437 kts 261°
2026-05-07 15:38 25.26453 49.32085 39859 ft 437 kts 261°
2026-05-07 15:38 25.25833 49.25410 39859 ft 437 kts 261°
2026-05-07 15:39 25.25219 49.18735 39858 ft 437 kts 261°
2026-05-07 15:39 25.24604 49.12063 39861 ft 437 kts 261°
2026-05-07 15:40 25.23991 49.05390 39858 ft 436 kts 261°
2026-05-07 15:40 25.23370 48.98726 39861 ft 436 kts 261°
2026-05-07 15:41 25.22746 48.92066 39854 ft 436 kts 261°
2026-05-07 15:41 25.22120 48.85409 39860 ft 436 kts 261°
2026-05-07 15:42 25.21492 48.78749 39862 ft 436 kts 261°
2026-05-07 15:42 25.20861 48.72094 39859 ft 436 kts 261°
2026-05-07 15:43 25.20227 48.65438 39870 ft 435 kts 261°
2026-05-07 15:43 25.19596 48.58804 39864 ft 433 kts 261°
2026-05-07 15:44 25.18962 48.52199 39867 ft 433 kts 261°
2026-05-07 15:44 25.18321 48.45594 39870 ft 433 kts 261°
2026-05-07 15:45 25.17678 48.38995 39872 ft 432 kts 261°
2026-05-07 15:45 25.17037 48.32415 39874 ft 431 kts 261°
2026-05-07 15:46 25.16068 48.22540 39876 ft 431 kts 261°
2026-05-07 15:47 25.15419 48.15964 39879 ft 431 kts 260°
2026-05-07 15:47 25.14771 48.09389 39882 ft 431 kts 260°
2026-05-07 15:48 25.14114 48.02818 39885 ft 431 kts 260°
2026-05-07 15:48 25.13453 47.96239 39889 ft 434 kts 260°
2026-05-07 15:49 25.12777 47.89554 39891 ft 442 kts 260°
2026-05-07 15:49 25.12094 47.82797 39898 ft 443 kts 260°
2026-05-07 15:50 25.11348 47.76060 39901 ft 442 kts 259°
2026-05-07 15:50 25.10534 47.69352 39904 ft 440 kts 259°
2026-05-07 15:51 25.09729 47.62711 39909 ft 439 kts 259°
2026-05-07 15:51 25.08930 47.56034 39911 ft 439 kts 259°
2026-05-07 15:52 25.08129 47.49323 39915 ft 438 kts 259°
2026-05-07 15:52 25.07338 47.42712 39912 ft 438 kts 259°
2026-05-07 15:53 25.06538 47.36063 39926 ft 437 kts 259°
2026-05-07 15:53 25.05735 47.29412 39925 ft 437 kts 259°
2026-05-07 15:54 25.04929 47.22767 39932 ft 437 kts 259°
2026-05-07 15:54 25.04120 47.16123 39925 ft 437 kts 259°
2026-05-07 15:55 25.03308 47.09480 39938 ft 437 kts 259°
2026-05-07 15:55 25.02626 47.03915 39940 ft 437 kts 259°
2026-05-07 15:56 25.01676 46.96192 39932 ft 437 kts 258°
2026-05-07 15:56 25.00855 46.89549 39939 ft 437 kts 258°
2026-05-07 15:57 25.00040 46.82979 39945 ft 437 kts 258°
2026-05-07 15:57 24.99369 46.76308 39944 ft 441 kts 264°
2026-05-07 15:58 25.00049 46.69545 39940 ft 451 kts 278°
2026-05-07 15:58 25.01547 46.65170 39940 ft 462 kts 290°
2026-05-07 15:59 25.05399 46.59336 39940 ft 482 kts 307°
2026-05-07 15:59 25.11945 46.52546 39938 ft 487 kts 309°
2026-05-07 16:00 25.16966 46.47521 39938 ft 487 kts 309°
2026-05-07 16:00 25.21958 46.42463 39939 ft 487 kts 309°
2026-05-07 16:01 25.26925 46.37379 39936 ft 487 kts 308°
2026-05-07 16:01 25.31885 46.32285 39930 ft 487 kts 308°
2026-05-07 16:02 25.36845 46.27185 39929 ft 487 kts 308°
2026-05-07 16:02 25.41806 46.22080 39933 ft 487 kts 308°
2026-05-07 16:03 25.46765 46.16973 39943 ft 487 kts 308°
2026-05-07 16:03 25.51727 46.11857 39930 ft 488 kts 308°
2026-05-07 16:04 25.56694 46.06728 39936 ft 488 kts 308°
2026-05-07 16:04 25.61659 46.01597 39936 ft 488 kts 308°
2026-05-07 16:05 25.66622 45.96469 39938 ft 488 kts 308°
2026-05-07 16:05 25.71591 45.91316 39944 ft 489 kts 308°
2026-05-07 16:06 25.76563 45.86153 39947 ft 490 kts 308°
2026-05-07 16:06 25.81535 45.80989 39949 ft 490 kts 308°
2026-05-07 16:07 25.86508 45.75819 39965 ft 490 kts 307°
2026-05-07 16:07 25.91488 45.70641 39964 ft 490 kts 307°
2026-05-07 16:08 25.96462 45.65449 39973 ft 491 kts 307°
2026-05-07 16:08 26.01433 45.60255 39977 ft 491 kts 307°
2026-05-07 16:09 26.06407 45.55057 39981 ft 490 kts 307°
2026-05-07 16:09 26.11343 45.49891 39992 ft 490 kts 307°
2026-05-07 16:10 26.16300 45.44699 39997 ft 489 kts 307°
2026-05-07 16:10 26.21255 45.39508 39993 ft 489 kts 307°
2026-05-07 16:11 26.26198 45.34316 40012 ft 488 kts 306°
2026-05-07 16:11 26.31134 45.29127 39996 ft 487 kts 306°
2026-05-07 16:12 26.36068 45.23955 39991 ft 487 kts 306°
2026-05-07 16:12 26.40998 45.18780 40005 ft 487 kts 306°
2026-05-07 16:13 26.45929 45.13598 39995 ft 487 kts 306°
2026-05-07 16:13 26.50861 45.08409 39988 ft 487 kts 306°
2026-05-07 16:14 26.54962 45.04091 39987 ft 487 kts 306°
2026-05-07 16:14 26.60726 44.98016 39987 ft 488 kts 306°
2026-05-07 16:15 26.65664 44.92807 39976 ft 489 kts 306°
2026-05-07 16:15 26.70606 44.87582 39968 ft 489 kts 306°
2026-05-07 16:16 26.75544 44.82355 39964 ft 489 kts 306°
2026-05-07 16:16 26.80483 44.77128 39963 ft 489 kts 306°
2026-05-07 16:17 26.85408 44.71892 39952 ft 488 kts 306°
2026-05-07 16:17 26.89501 44.67532 39950 ft 488 kts 306°
2026-05-07 16:18 26.95224 44.61432 39974 ft 489 kts 306°
2026-05-07 16:18 27.00144 44.56188 39948 ft 488 kts 305°
2026-05-07 16:19 27.04265 44.51788 39945 ft 488 kts 305°
2026-05-07 16:19 27.09964 44.45677 39943 ft 487 kts 305°
2026-05-07 16:20 27.14866 44.40417 39946 ft 487 kts 305°
2026-05-07 16:20 27.18972 44.36015 39942 ft 487 kts 305°